Probability
0 0 0 0 0 0 0 0 0 0 0 0 0 0 0 0 0 0 0 0 0 0 0 0 0 0 0 0 0 0 0 0 0 0 0 0 0 0
0 0 0 0 0 0 0 0 0 0 0 0 0 0 0 0 0 0 0 0 0 0 0 0 0 0 0 0 0 0 0 0 0 0 0 0 0 0
0 0 0 0 0 0 0 0 0 0 0 0 0 0 0 0 0 0 0 0 0 0 0 0 0 0 0 0 0 0 0 0 0 0 0 0 0 0
0 0 0 0 0 0 0 0 0 0 0 0 0 0 0 0 0 0 0 0 0 0 0 0 0 0 0 0 0 0 0 0 0 0 0 0 0 0
0 0 0 0 0 0 0 0 0 0 0 0 0 0 0 0 0 0 0 0 0 0 0 0 0 0 0 0 0 0 0 0 0 0 0 0 0 0
0 0 0 0 0 0 0 0 0 0 0 0 0 0 0 0 0 0 0 0 0 0 0 0 0 0 0 0 0 0 0 0 0 0 0 0 0 0
0 0 0 0 0 0 0 0 0 0 0 0 0 0 0 0 0 0 0 0 0 0 0 0 0 0 0 0 0 0 0 0 0 0 0 0 0 0
0 0 0 0 0 0 0 0 0 0 0 0 0 0 0 0 0 0 0 0 0 0 0 0 0 0 0 0 0 0 0 0 0 0 0 0 0 0
0 0 0 0 0 0 0 0 0 0 0 0 0 0 0 0 0 0 0 0 0 0 0 0 0 0 0 0 0 0 0 0 0 0 0 0 0 0
0 0 0 0 0 0 0 0 0 0 0 0 0 0 0 0 0 0 0 0 0 0 0 0 0 0 0 0 0 0 0 0 0 0 0 0 0 0
0 0 0 0 0 0 0 0 0 0 0 0 0 0 0 0 0 0 0 0 0 0 0 0 0 0 0 0 0 0 0 0 0 0 0 0 0 0
0 0 0 0 0 0 0 0 0 0 0 0 0 0 0 0 0 0 0 0 0 0 0 0 0 0 0 0 0 0 0 0 0 0 0 0 0 0
0 0 0 0 0 0 0 0 0 0 0 0 0 0 0 0 0 0 0 0 0 0 0 0 0 0 0 0 0 0 0 0 0 0 0 0 0 0
0 0 0 0 0 0 0 0 0 0 0 0 0 0 0 0 0 0 0 0 0 0 0 0 0 0 0 0 0 0 0 0 0 0 0 0 0 0
0 0 0 0 0 0 0 0 0 0 0 0 0 0 0 0 0 0 0 0 0 0 0 0 0 0 0 0 0 0 0 0 0 0 0 0 0 0
0 0 0 0 0 0 0 0 0 0 0 0 0 0 0 0 0 0 0 0 0 0 0 0 0 0 0 0 0 0 0 0 0 0 0 0 0 0
0 0 0 0 0 0 0 0 0 0 0 0 0 0 0 0 0 0 0 0 0 0 0 0 0 0 0 0 0 0 0 0 0 0 0 0 0 0
0 0 0 0 0 0 0 0 0 0 0 0 0 0 0 0 0 0 0 0 0 0 0 0 0 0 0 0 0 0 0 0 0 0 0 0 0 0
0 0 0 0 0 0 0 0 0 0 0 0 0 0 0 0 0 0 0 0 0 0 0 0 0 0 0 0 0 0 0 0 0 0 0 0 0 0
0 0 0 0 0 0 0 0 0 0 0 0 0 0 0 0 0 0 0 0 0 0 0 0 0 0 0 0 0 0 0 0 0 0 0 0 0 0
0 0 0 0 0 0 0 0 0 0 0 0 0 0 0 0 0 0 0 0 0 0 0 0 0 0 0 0 0 0 0 0 0 0 0 0 0 0
0 0 0 0 0 0 0 0 0 0 0 0 0 0 0 0 0 0 0 0 0 0 0 0 0 0 0 0 0 0 0 0 0 0 0 0 0 0
0 0 0 0 0 0 0 0 0 0 0 0 0 0 0 0 0 0 0 0 0 0 0 0 0 0 0 0 0 0 0 0 0 0 0 0 0 0
Height
5704 5700 5696 5692 5688 5684 5680 5676 5673 5670 5667 5661 5655 5650 5645 5640 5635 5631 5626 5620 5614 5609 5603 5597 5591 5585 5579 5573 5568 5563 5558 5553 5549 5545 5543 5540 5539 5538
5694 5690 5686 5682 5677 5673 5669 5664 5660 5657 5654 5649 5643 5638 5633 5627 5622 5617 5611 5605 5599 5592 5585 5578 5572 5565 5558 5552 5546 5540 5534 5530 5525 5521 5517 5514 5513 5511
5683 5679 5675 5671 5666 5662 5657 5653 5648 5644 5640 5637 5630 5625 5619 5614 5608 5602 5595 5589 5582 5574 5566 5558 5551 5543 5536 5528 5522 5515 5509 5504 5499 5494 5490 5487 5484 5484
5672 5668 5664 5659 5655 5650 5645 5641 5636 5631 5627 5623 5618 5611 5605 5599 5593 5586 5579 5571 5563 5555 5546 5537 5528 5520 5511 5503 5496 5489 5483 5477 5472 5467 5463 5459 5457 5454
5661 5657 5653 5648 5643 5638 5633 5628 5623 5618 5612 5608 5604 5597 5590 5582 5576 5569 5561 5552 5543 5534 5525 5516 5506 5497 5487 5479 5471 5464 5458 5452 5447 5441 5437 5433 5430 5428
5650 5646 5641 5636 5631 5626 5621 5615 5610 5604 5598 5592 5587 5581 5574 5566 5557 5550 5544 5534 5525 5514 5504 5493 5484 5474 5464 5455 5448 5441 5435 5429 5424 5419 5415 5411 5408 5406
5639 5634 5629 5624 5619 5613 5608 5602 5596 5590 5584 5577 5571 5565 5557 5548 5539 5530 5523 5515 5506 5493 5484 5474 5463 5454 5444 5435 5427 5421 5415 5410 5405 5400 5397 5393 5390 5388
5627 5622 5617 5612 5606 5600 5594 5588 5581 5574 5568 5561 5554 5547 5538 5529 5520 5510 5501 5494 5487 5476 5463 5455 5443 5434 5425 5417 5410 5404 5398 5393 5389 5385 5381 5378 5375 5373
5615 5610 5605 5599 5593 5587 5581 5574 5567 5558 5551 5544 5536 5528 5519 5511 5501 5493 5482 5472 5464 5453 5442 5436 5426 5417 5409 5402 5395 5389 5384 5380 5376 5372 5368 5365 5363 5361
5603 5597 5592 5586 5579 5573 5567 5560 5553 5544 5535 5527 5519 5511 5501 5491 5481 5472 5463 5455 5446 5434 5422 5416 5410 5403 5396 5388 5381 5376 5372 5368 5364 5361 5358 5356 5354 5352
5590 5584 5578 5572 5565 5558 5552 5546 5538 5529 5519 5510 5502 5493 5483 5474 5463 5454 5445 5435 5429 5420 5407 5399 5394 5389 5384 5376 5369 5364 5361 5358 5355 5352 5350 5348 5346 5345
5577 5571 5564 5557 5550 5542 5535 5528 5521 5513 5504 5496 5486 5477 5467 5458 5447 5437 5427 5418 5410 5404 5395 5387 5381 5374 5372 5367 5360 5356 5352 5350 5347 5345 5343 5341 5340 5339
5564 5557 5550 5542 5535 5527 5519 5511 5503 5496 5488 5480 5471 5462 5453 5443 5433 5422 5412 5402 5395 5388 5381 5374 5369 5363 5358 5357 5352 5348 5345 5343 5341 5339 5337 5336 5335 5334
5549 5543 5535 5528 5520 5512 5503 5495 5487 5479 5471 5463 5455 5446 5437 5428 5418 5409 5399 5390 5382 5376 5369 5363 5358 5354 5350 5347 5345 5342 5339 5337 5335 5334 5333 5331 5330 5329
5534 5527 5520 5512 5504 5496 5487 5479 5470 5462 5455 5447 5439 5430 5421 5412 5404 5395 5387 5379 5372 5365 5359 5354 5350 5346 5343 5340 5338 5336 5334 5332 5330 5329 5328 5327 5326 5326
5518 5511 5503 5496 5487 5480 5472 5463 5455 5446 5438 5431 5423 5415 5407 5398 5390 5382 5375 5368 5363 5357 5351 5346 5343 5340 5337 5334 5332 5330 5329 5327 5326 5325 5324 5323 5323 5322
5501 5494 5487 5479 5472 5464 5456 5448 5440 5432 5423 5416 5408 5401 5393 5385 5377 5370 5364 5358 5353 5348 5344 5340 5336 5333 5331 5329 5327 5326 5324 5323 5322 5321 5321 5320 5320 5319
5485 5478 5470 5463 5455 5447 5440 5432 5424 5416 5409 5401 5394 5386 5379 5372 5365 5358 5353 5348 5344 5340 5337 5334 5331 5328 5326 5324 5323 5322 5321 5320 5319 5318 5318 5317 5317 5317
5469 5462 5454 5446 5438 5430 5423 5416 5408 5401 5394 5387 5380 5373 5366 5359 5353 5348 5343 5339 5336 5333 5330 5327 5325 5323 5322 5320 5318 5318 5317 5316 5316 5315 5315 5315 5315 5315
5453 5445 5437 5429 5421 5414 5407 5400 5393 5386 5379 5373 5366 5359 5353 5347 5342 5338 5334 5331 5328 5326 5324 5321 5320 5318 5317 5316 5315 5314 5314 5313 5313 5313 5313 5313 5314 5314
5438 5429 5421 5413 5406 5398 5391 5385 5378 5372 5365 5359 5353 5347 5341 5336 5332 5329 5326 5323 5321 5320 5318 5316 5315 5314 5313 5312 5312 5311 5311 5311 5311 5311 5311 5312 5312 5313
5422 5414 5406 5398 5390 5383 5377 5371 5364 5358 5352 5347 5341 5336 5331 5327 5324 5321 5319 5317 5315 5314 5312 5311 5310 5309 5309 5309 5308 5308 5308 5308 5308 5309 5310 5311 5311 5312
5406 5398 5391 5383 5376 5369 5363 5357 5351 5346 5340 5335 5330 5326 5322 5319 5317 5314 5312 5311 5309 5308 5307 5307 5306 5306 5306 5306 5306 5306 5306 5306 5307 5307 5309 5309 5310 5311
Wind_Speed
44 45 45 46 46 46 47 47 47 46 45 46 48 48 49 50 51 52 54 55 56 58 60 62 64 66 67 68 69 70 71 71 72 72 73 74 74 75
45 46 46 46 47 47 47 48 48 48 47 47 49 49 50 51 53 55 56 58 60 62 65 67 68 70 71 71 72 73 74 74 75 75 76 76 77 78
46 46 47 47 47 48 48 49 49 49 49 49 50 51 53 54 56 58 60 62 65 67 69 71 72 73 74 75 76 77 78 78 78 78 79 79 79 79
47 47 48 48 48 49 50 50 51 51 51 51 52 54 56 58 60 62 64 66 69 70 72 74 75 76 77 78 78 78 78 77 77 76 76 75 75 76
48 48 49 49 50 50 51 52 52 53 54 54 55 57 59 62 64 66 68 70 71 73 75 76 77 77 77 77 76 75 74 72 70 69 67 67 66 67
49 49 50 51 51 52 52 53 54 55 56 57 58 60 63 66 68 69 70 72 73 75 76 76 76 75 74 73 71 69 66 64 62 60 58 58 57 57
49 50 51 52 53 54 54 55 57 58 59 61 62 65 67 69 71 72 73 73 73 74 74 73 72 70 69 67 64 61 59 57 55 52 51 50 49 49
51 52 53 54 55 56 57 58 59 60 62 65 67 68 70 71 72 73 74 73 71 72 72 69 68 65 62 59 57 54 52 49 47 45 44 43 42 41
52 53 54 55 56 57 59 60 61 63 66 68 69 70 71 71 72 71 71 72 72 71 70 65 61 58 55 52 51 48 46 44 41 39 38 36 34 33
53 54 55 57 58 60 60 61 63 65 68 69 70 70 70 70 70 71 72 72 70 68 66 60 55 52 49 48 47 44 41 38 36 33 31 30 29 28
54 55 57 58 60 61 63 64 65 66 68 69 69 69 69 69 70 72 72 71 67 62 59 56 51 48 45 44 41 39 35 33 31 28 27 25 24 23
55 57 59 60 62 63 65 66 66 67 67 68 68 68 68 69 71 71 70 67 64 58 53 51 48 45 39 37 35 33 30 28 26 24 23 22 21 20
57 59 60 62 63 65 66 66 67 67 67 67 67 67 68 69 68 68 66 64 59 53 49 47 43 39 35 30 29 28 26 25 23 21 20 20 19 17
59 60 62 63 64 65 66 66 67 67 67 67 66 67 67 66 65 64 61 58 53 48 45 42 38 34 30 27 25 24 23 22 20 19 18 18 17 16
61 62 63 64 65 65 65 66 67 67 67 66 66 66 65 64 62 60 56 51 47 44 41 37 33 29 27 25 22 21 20 19 18 17 16 16 15 14
62 63 63 64 64 64 65 65 66 66 66 65 64 63 62 61 59 55 50 46 42 39 36 33 29 27 25 23 20 18 17 16 16 15 14 13 13 12
62 62 63 63 63 64 64 64 64 64 64 63 62 61 60 58 55 50 46 42 38 34 31 29 26 25 23 20 18 16 15 14 14 13 12 11 11 10
61 61 62 62 63 64 64 63 63 62 61 61 60 59 57 54 50 46 42 37 33 30 27 26 24 22 20 19 16 14 13 13 12 11 10 9 9 8
61 62 63 63 64 64 63 62 61 60 59 58 57 56 53 50 46 41 37 32 29 27 25 23 22 19 17 16 15 13 12 11 10 10 9 8 7 6
62 63 63 64 63 62 61 60 59 58 57 55 54 52 49 45 40 36 32 29 26 24 23 21 20 17 15 14 13 12 11 10 9 8 7 6 6 5
62 63 63 62 61 59 58 58 56 55 53 52 51 48 44 39 35 32 28 25 23 22 20 19 18 15 13 12 11 11 10 9 8 7 6 5 4 4
62 62 61 60 59 58 57 55 53 51 50 48 46 42 38 34 31 27 25 23 21 20 18 17 15 13 12 11 10 9 9 8 6 5 5 4 3 3
61 60 59 58 57 56 54 51 50 48 47 45 41 37 33 29 27 24 22 21 19 18 17 15 13 11 11 10 9 8 7 6 5 5 5 4 3 3
Wind_Direction
299 299 300 301 301 301 301 301 301 300 300 300 300 299 299 299 298 297 297 297 296 296 295 295 294 293 292 290 288 287 285 284 282 280 278 276 274 272
299 300 300 301 301 301 302 302 302 301 301 301 301 301 300 299 299 299 298 298 298 297 297 296 295 293 292 290 288 287 285 284 283 281 279 277 275 273
299 300 301 301 302 302 302 302 302 302 302 302 302 301 301 300 300 300 300 300 300 299 298 297 296 295 293 292 290 289 287 286 284 282 280 278 276 273
299 300 301 301 302 302 303 303 302 302 303 303 302 302 302 302 302 302 302 301 300 300 299 299 298 296 295 293 292 290 289 288 286 284 281 279 276 274
299 300 301 302 302 303 303 303 303 303 303 303 303 303 303 303 303 303 303 302 301 301 301 300 298 297 296 295 293 292 291 289 288 286 283 280 277 275
299 300 301 302 302 303 303 303 303 304 304 304 304 304 304 304 304 303 303 303 303 302 302 301 300 299 298 297 295 294 293 291 289 287 285 282 280 277
299 300 301 302 302 303 303 304 304 304 304 305 305 305 305 305 305 305 304 304 305 304 304 303 302 301 299 298 296 295 294 292 291 288 286 284 282 280
299 300 301 301 302 303 304 304 305 305 305 306 306 306 307 306 306 306 306 306 307 306 306 305 303 302 300 299 298 297 296 294 292 291 289 287 285 282
300 301 301 302 302 303 304 305 306 306 306 307 307 308 308 307 308 308 308 309 310 309 307 306 304 303 301 300 299 298 297 296 294 293 291 289 287 284
300 301 301 302 303 303 304 305 306 306 306 307 308 309 309 309 309 310 310 311 311 310 308 307 305 304 302 301 300 299 298 296 295 294 292 290 288 285
300 301 302 302 303 303 304 305 306 306 307 308 309 309 310 310 310 311 312 312 312 310 308 307 306 305 304 302 300 299 298 297 296 294 292 291 289 287
300 301 302 303 303 304 305 306 306 307 307 308 309 309 310 310 311 312 312 312 312 311 308 307 307 306 304 302 300 299 298 297 296 293 292 290 289 288
301 301 302 303 304 304 305 306 306 307 308 308 309 309 310 311 311 312 312 312 312 311 309 309 309 307 306 304 300 299 298 297 295 292 291 290 288 285
301 301 302 303 304 305 305 306 307 308 308 309 309 310 310 311 312 312 312 311 311 311 310 310 310 308 306 305 301 298 298 297 295 293 291 289 286 283
301 302 303 304 304 305 306 306 307 308 309 309 310 311 311 312 312 312 312 311 311 310 310 310 310 308 306 305 302 298 297 297 297 295 292 289 285 281
302 303 304 304 305 305 306 307 307 308 308 309 310 311 311 312 312 312 311 310 310 309 308 309 308 307 305 304 302 299 297 296 296 295 293 290 285 281
303 304 305 305 305 306 306 307 307 308 308 309 310 310 311 311 311 311 310 310 308 307 306 306 306 306 304 302 300 298 297 297 296 295 292 291 288 283
304 305 305 306 306 307 307 307 307 307 308 308 309 310 311 311 310 309 309 308 307 306 305 304 304 304 301 299 298 297 297 297 296 293 291 289 288 284
305 306 306 306 307 307 307 307 307 308 308 308 309 310 310 310 308 307 306 305 304 304 303 303 303 300 295 294 295 295 296 296 294 291 287 284 284 282
306 306 306 307 307 307 307 307 308 307 307 308 309 310 310 309 307 305 304 302 301 302 302 302 302 298 292 291 291 292 293 294 292 285 279 275 274 271
306 306 307 307 307 307 307 308 308 308 308 308 309 309 308 307 305 303 301 300 300 300 300 300 299 294 290 289 288 289 289 290 287 276 265 263 263 256
307 307 307 307 307 307 308 308 308 308 308 309 309 308 307 306 304 302 299 298 298 298 298 298 295 289 287 286 285 284 286 285 279 263 244 240 246 241
307 307 307 307 307 308 308 307 307 308 308 309 308 307 306 304 303 300 297 296 296 296 296 294 288 284 283 282 279 277 279 276 266 251 233 227 228 227